Ocala, FL

5:48 AM EDT on August 18, 2017 (GMT -0400)
Ocala Regional-Taylor

Weather History for KOCF - October, 2013

Change the Weather History Date:

Monday, October 7, 2013

  Actual Average Record
Temperature  
Mean Temperature 76 °F -  
Max Temperature 82 °F 82 °F 91 °F (1998)
Min Temperature 71 °F 63 °F 46 °F (2010)
Cooling Degree Days 12    
Growing Degree Days 26 (Base 50)    
Moisture  
Dew Point 68 °F    
Average Humidity 80    
Maximum Humidity 88    
Minimum Humidity 66    
Precipitation  
Precipitation 1.52 in - - ()
Sea Level Pressure  
Sea Level Pressure 29.82 in    
Wind  
Wind Speed 3 mph (SSE)    
Max Wind Speed 10 mph    
Max Gust Speed 17 mph    
Visibility 9 miles    
Events Rain , Thunderstorm    
Averages and records for this station are not official NWS values.
T = Trace of Precipitation, MM = Missing Value Source: NWS Daily Summary

Daily Weather History Graph

Daily Weather History Graph

Search for Another Location

Airport or City:

Trip Planner

Search our weather history database for the weather conditions in past years. The results will help you decide how hot, cold, wet, or windy it might be!

Date:

Astronomy

Oct. 07, 2013 Rise Set
Actual Time 7:25 AM EDT 7:07 PM EDT
Civil Twilight 7:01 AM EDT 7:30 PM EDT
Nautical Twilight 6:34 AM EDT 7:58 PM EDT
Astronomical Twilight 6:06 AM EDT 8:25 PM EDT
Moon 9:59 AM EDT (10/7) 9:06 PM EDT (10/7)
Length of Visible Light 12h 29m
Length of Day
11h 41m
Waxing Crescent, 8% of the Moon is Illuminated
Oct 7
Waxing Crescent
Oct 11
First Quarter
Oct 18
Full
Oct 26
Last Quarter
Nov 3
New

Hourly Weather History & Observations

Time (EDT) Temp. Heat Index Dew Point Humidity Pressure Visibility Wind Dir Wind Speed Gust Speed Precip Events Conditions
12:15 AM 73.4 °F - 66.2 °F 78% 29.89 in 10.0 mi SSW 3.5 mph - N/A   Clear
12:35 AM 73.4 °F - 66.2 °F 78% 29.88 in 10.0 mi SSE 3.5 mph - N/A   Clear
12:55 AM 73.4 °F - 66.2 °F 78% 29.88 in 10.0 mi Calm Calm - N/A   Clear
1:15 AM 73.4 °F - 66.2 °F 78% 29.88 in 10.0 mi South 5.8 mph - N/A   Clear
1:35 AM 73.4 °F - 66.2 °F 78% 29.88 in 10.0 mi Calm Calm - N/A   Clear
1:55 AM 73.4 °F - 66.2 °F 78% 29.87 in 10.0 mi SSE 3.5 mph - N/A   Clear
2:15 AM 71.6 °F - 66.2 °F 83% 29.86 in 10.0 mi SSW 3.5 mph - N/A   Clear
2:35 AM 71.6 °F - 64.4 °F 78% 29.86 in 10.0 mi SSW 3.5 mph - N/A   Clear
2:55 AM 71.6 °F - 64.4 °F 78% 29.86 in 10.0 mi Calm Calm - N/A   Clear
3:15 AM 71.6 °F - 66.2 °F 83% 29.85 in 10.0 mi SSE 3.5 mph - N/A   Clear
3:35 AM 71.6 °F - 66.2 °F 83% 29.84 in 10.0 mi South 3.5 mph - N/A   Clear
3:55 AM 71.6 °F - 64.4 °F 78% 29.83 in 10.0 mi Calm Calm - N/A   Clear
4:15 AM 71.6 °F - 64.4 °F 78% 29.83 in 10.0 mi Calm Calm - N/A   Clear
4:35 AM 71.6 °F - 64.4 °F 78% 29.83 in 10.0 mi Calm Calm - N/A   Clear
4:55 AM 71.6 °F - 64.4 °F 78% 29.83 in 10.0 mi Calm Calm - N/A   Clear
5:15 AM 71.6 °F - 66.2 °F 83% 29.82 in 10.0 mi Calm Calm - N/A   Clear
5:35 AM 71.6 °F - 66.2 °F 83% 29.83 in 10.0 mi Calm Calm - N/A   Clear
5:55 AM 73.4 °F - 66.2 °F 78% 29.83 in 10.0 mi SSE 3.5 mph - N/A   Clear
6:15 AM 73.4 °F - 66.2 °F 78% 29.83 in 10.0 mi South 3.5 mph - N/A   Clear
6:35 AM 71.6 °F - 66.2 °F 83% 29.83 in 10.0 mi Calm Calm - N/A   Clear
6:50 AM 71.6 °F - 66.2 °F 83% 29.83 in 10.0 mi SSE 4.6 mph - N/A   Clear
7:50 AM 73.4 °F - 66.2 °F 78% 29.83 in 10.0 mi SSE 3.5 mph - N/A   Clear
8:50 AM 73.4 °F - 66.2 °F 78% 29.86 in 10.0 mi South 4.6 mph - N/A   Partly Cloudy
9:50 AM 75.2 °F - 68.0 °F 78% 29.86 in 10.0 mi South 9.2 mph - N/A   Mostly Cloudy
10:50 AM 78.8 °F - 68.0 °F 69% 29.85 in 10.0 mi South 8.1 mph - N/A   Mostly Cloudy
11:50 AM 82.4 °F 86.3 °F 69.8 °F 66% 29.84 in 10.0 mi South 8.1 mph - N/A   Mostly Cloudy
12:50 PM 82.4 °F 86.3 °F 69.8 °F 66% 29.82 in 10.0 mi South 10.4 mph 17.3 mph N/A   Mostly Cloudy
1:50 PM 82.4 °F 87.2 °F 71.6 °F 70% 29.79 in 10.0 mi South 8.1 mph - N/A   Mostly Cloudy
2:50 PM 77.0 °F - 69.8 °F 78% 29.77 in 5.0 mi SE 4.6 mph - N/A Rain Light Rain
3:25 PM 77.0 °F - 69.8 °F 78% 29.77 in 1.8 mi SE 4.6 mph - N/A Rain Rain
3:50 PM 77.0 °F - 69.8 °F 78% 29.76 in 10.0 mi South 3.5 mph - N/A   Mostly Cloudy
4:45 PM 75.2 °F - 69.8 °F 83% 29.76 in 0.8 mi NNE 6.9 mph - N/A Rain , Thunderstorm Thunderstorms and Rain
5:35 PM 73.4 °F - 68.0 °F 83% 29.76 in 5.0 mi NE 5.8 mph - N/A   Mostly Cloudy
5:50 PM 75.2 °F - 69.8 °F 83% 29.75 in 10.0 mi ENE 6.9 mph - N/A   Mostly Cloudy
6:50 PM 75.2 °F - 69.8 °F 83% 29.76 in 10.0 mi Calm Calm - N/A   Scattered Clouds
7:55 PM 75.2 °F - 69.8 °F 83% 29.77 in 10.0 mi Calm Calm - N/A   Mostly Cloudy
8:15 PM 75.2 °F - 69.8 °F 83% 29.78 in 10.0 mi Calm Calm - N/A   Overcast
8:35 PM 75.2 °F - 69.8 °F 83% 29.79 in 10.0 mi Calm Calm - N/A   Overcast
8:55 PM 75.2 °F - 69.8 °F 83% 29.79 in 10.0 mi Calm Calm - N/A   Overcast
9:15 PM 73.4 °F - 68.0 °F 83% 29.80 in 10.0 mi North 4.6 mph - N/A   Mostly Cloudy
9:35 PM 73.4 °F - 68.0 °F 83% 29.81 in 10.0 mi Calm Calm - N/A   Partly Cloudy
9:55 PM 73.4 °F - 69.8 °F 88% 29.81 in 10.0 mi Calm Calm - N/A   Partly Cloudy
10:15 PM 73.4 °F - 69.8 °F 88% 29.82 in 10.0 mi Calm Calm - N/A   Mostly Cloudy
10:35 PM 73.4 °F - 68.0 °F 83% 29.82 in 9.0 mi Calm Calm - N/A   Mostly Cloudy
10:55 PM 75.2 °F - 69.8 °F 83% 29.82 in 10.0 mi North 4.6 mph - N/A   Overcast
11:15 PM 75.2 °F - 69.8 °F 83% 29.83 in 10.0 mi North 4.6 mph - N/A   Overcast
11:35 PM 73.4 °F - 68.0 °F 83% 29.82 in 10.0 mi Calm Calm - N/A   Mostly Cloudy